Regional Weather Roundup
Issued by NWS Newport/Morehead, NC

Current Version | Previous Version | Graphics & Text | Print | Product List | Glossary On
Versions: 1 2 3 4 5 6 7 8 9 10 11 12 13 14 15 16 17 18 19 20 21 22 23 24 25 26 27 28 29 30 31 32 33 34 35 36 37 38 39 40 41 42 43 44 45 46 47 48 49 50
802 ASUS42 KMHX 211413 RWRMHX WEATHER ROUNDUP FOR EASTERN NORTH CAROLINA NATIONAL WEATHER SERVICE NEWPORT/MOREHEAD CITY NC 900 AM EST SAT JAN 21 2017 NOTE: "FAIR" INDICATES FEW OR NO CLOUDS BELOW 12,000 FEET WITH NO SIGNIFICANT WEATHER AND/OR OBSTRUCTIONS TO VISIBILITY NCZ015>017-031-032-045>047-102-103-211500- NORTH COAST CITY SKY/WX TMP DP RH WIND PRES REMARKS EDENTON CLOUDY 50 50 100 CALM 29.96R FOG ELIZABETH CITY FOG 48 48 100 SE5 29.95R VSB 1/2 KITTY HAWK NOT AVBL MANTEO FOG 48 48 100 E5 29.96F VSB 1/2 $$ NCZ045>047-081-094-103-104-211500- CENTRAL COAST CITY SKY/WX TMP DP RH WIND PRES REMARKS FRISCO FOG 51 51 100 VRB5 29.96R VSB<1/4 $$ NCZ095-097-098-100-101-211500- SOUTHERN COAST CITY SKY/WX TMP DP RH WIND PRES REMARKS BEAUFORT FOG 51 51 100 NE5 29.95R VSB 1/4 CEDAR ISLAND NOT AVBL JACKSONVILLE CLOUDY 51 51 100 E5 29.94R FOG PINEY ISLAND FOG N/A N/A N/A E7 29.96 VSB 1/4 WILMINGTON CLOUDY 56 56 100 E5 29.92S FOG $$ NCZ011>013-027>030-043-044-078>080-089-090>093-098-211500- COASTAL PLAIN CITY SKY/WX TMP DP RH WIND PRES REMARKS AHOSKIE N/A 47 46 99 S3 29.96R FOG CLINTON FOG 51 51 100 CALM 29.93S VSB<1/4 ELIZABETHTOWN FOG 53 53 100 CALM 29.91F VSB 1/2 GOLDSBORO CLOUDY 52 52 100 E6 29.92S FOG GREENVILLE CLOUDY 50 50 100 E3 29.97S FOG HAVELOCK FOG 49 48 97 NE7 29.95S VSB 1/4 KENANSVILLE FOG 50 50 100 CALM 29.94R VSB 1/4 KINSTON FOG 50 50 100 NE3 29.94F VSB 1/4 NEW BERN FOG 50 49 96 E5 29.96R VSB 1/4 RICHLANDS CLOUDY 50 50 100 NE5 29.95R FOG ROCKY MOUNT FOG 48 48 100 CALM 29.95R VSB 1/2 WASHINGTON CLOUDY 48 48 100 CALM N/A FOG WHITEVILLE CLOUDY 57 56 97 CALM 29.90S FOG $$ AMZ130-135-150-152-154-156-158-170-250-252-270-ANZ085-086-088-633-658-670-211500- MARINE OBSERVATIONS STATION/POSITION TIME TEMP WIND PRES WAVE SWELL AIR SEA DIR/SP/G HT/PER HT/PER (UTC) (F) (DEG/KT/KT) (MB) (FT/S) (FT/S) CHESAPEAKE LIGHT NOT AVBL 64 E VA BEACH 1350 53 56 90/ 6/ 10 1013.5 4/10 3/10 DUCK 1342 48 45 110/ 4/ 7 1013.5 2 E DUCK 1330 45 N/A 3/12 2/12 OREGON INLET 1342 48 48 30/ 3/ 4 1013.9 13E OREGON INLT NOT AVBL HATTERAS CG 1342 50 54 40/ 4/ 7 1014.0 DIAMOND BUOY 1350 58 74 40/ 8/ 10 1014.1 4/10 3/10 CAPE LOOKOUT 1400 58 60/ 9/ 10 1013.6 BEAUFORT LAB 1342 49 51 20/ 4/ 6 1012.9 30 SE NEW RVR IN 1308 57 63 80/ 8/ 12 1013.4 30 SE NEW RVR IN 1343 63 N/A 4/12 2/12 27 SE WRIGHTSVLE 1308 66 72 120/ 2/ 6 1013.0 5 SE WRIGHTSVLE 1308 54 30/ 6/ 8 1013.0 225 S CAPE HAT 1350 72 70 340/ 4/ 4 1014.1 6/13 5/13 41 SE CHARLESTON 1350 69 67 240/ 12/ 14 1012.4 2/ 4 2/12 $$

USA.gov is the U.S. government's official web portal to all federal, state and local government web resources and services.